Regional Weather Roundup
Issued by NWS

Home | Current Version | Previous Version | Graphics & Text | Print | Product List | Glossary On
Versions: 1 2 3 4 5 6 7 8 9 10 11 12 13 14 15 16 17 18 19 20 21 22 23 24 25 26 27 28 29 30 31 32 33 34 35 36 37 38 39 40 41 42 43 44 45 46 47 48 49 50
000
ASUS43 KIND 282209
RWRIN

WEATHER ROUNDUP FOR INDIANA
NATIONAL WEATHER SERVICE INDIANAPOLIS IN
600 PM EDT MON JUL 28 2014

NOTE: "FAIR" INDICATES FEW OR NO CLOUDS BELOW 12,000 FEET WITH NO
SIGNIFICANT WEATHER AND/OR OBSTRUCTIONS TO VISIBILITY.

* - STATION DOES NOT REPORT WEATHER SUCH AS PRECIPITATION OR FOG.

+ - STATION NOT QUALITY CONTROLLED BY THE NATIONAL WEATHER SERVICE.
    USE DATA WITH CAUTION...ESPECIALLY DEWPOINT AND RELATIVE
    HUMIDITY OBSERVATIONS.

INZ001>003-010>013-019-020-282300-
NORTHWEST INDIANA

CITY           SKY/WX    TMP DP  RH WIND       PRES   REMARKS
GARY /AIRPORT/ MOSUNNY   66  48  52 N12G23    30.11S
KNOX *+        SUNNY     64  48  55 N18G25    30.06S
LA PORTE +     SUNNY     62  48  60 N18G29    30.07S
MICHIGAN CITY+ SUNNY     63  45  51 N17G26    30.08S
MONTICELLO +   SUNNY     66  51  58 NW18G24   30.06S
RENSSELAER +   SUNNY     64  46  52 N13G21    30.09S
VALPARAISO     SUNNY     64  46  52 N13G26    30.08S

$$

LMZ046-743>745-282300-
SOUTHERN LAKE MICHIGAN

STATION/POSITION TIME  TEMP WIND        PRES
                       AIR  DIR/SP/G
                 (UTC) (F)  (DEG/KT/KT) (MB)
MICHIGAN CITY    2200   63  330/ 26/ 31   N/A

$$

INZ004-005-014>016-021>024-282300-
NORTH CENTRAL INDIANA

CITY           SKY/WX    TMP DP  RH WIND       PRES   REMARKS
GOSHEN         SUNNY     64  49  57 NW16      30.03S
LOGANSPORT +   MOSUNNY   63  46  55 NW12      30.06S
PERU/GRISSOM   MOSUNNY   67  52  58 NW16G22   30.04S
ROCHESTER +    SUNNY     68  46  45 NW15      30.05S
SOUTH BEND     PTSUNNY   63  48  58 NW17      30.06R
WARSAW +       SUNNY     63  50  63 NW15      30.04R

$$

INZ006>009-017-018-025>027-282300-
NORTHEAST INDIANA

CITY           SKY/WX    TMP DP  RH WIND       PRES   REMARKS
ANGOLA *+      MOSUNNY   66  59  77 NW13      29.99R
AUBURN +       MOSUNNY   68  50  52 NW16      30.00S
FORT WAYNE     MOSUNNY   65  53  65 NW16G24   30.00S
HUNTINGTON +   CLOUDY    63  52  68 NW9       30.02S

$$

INZ028-029-035-036-043>045-051>053-282300-
WEST CENTRAL INDIANA

CITY           SKY/WX    TMP DP  RH WIND       PRES   REMARKS
GREENCASTLE +  MOSUNNY   70  55  60 N12       30.05S
LAFAYETTE      SUNNY     68  47  46 N16G25    30.07R
TERRE HAUTE    PTSUNNY   71  55  56 N10       30.05R

$$

INZ030>032-037>040-046>048-054>057-064-065-282300-
CENTRAL INDIANA

CITY           SKY/WX    TMP DP  RH WIND       PRES   REMARKS
CP ATTERBURY + MOSUNNY   72  54  53 NW14G21   30.02R
COLUMBUS       MOSUNNY   73  59  60 N14       30.01S
FRANKFORT +    SUNNY     68  52  56 NW14G24   30.06
INDIANAPOLIS   MOSUNNY   69  53  56 N18       30.03S
-EAGLE CREEK   MOSUNNY   68  53  58 NW16G22   30.03S
KOKOMO *+      MOSUNNY   66  52  59 NW14      30.04S
MARION +       PTSUNNY   64  51  62 NW15G21   30.03F
MT COMFORT *+  SUNNY     68  57  68 NW15G23   30.04R
SHELBYVILLE    MOSUNNY   72  57  59 N17G23    30.01S
ZIONSVILLE +   SUNNY     68  50  52 NW13      30.05S

$$

INZ033-034-041-042-049-050-058-059-282300-
EAST CENTRAL INDIANA

CITY           SKY/WX    TMP DP  RH WIND       PRES   REMARKS
MUNCIE         MOSUNNY   66  54  65 NW15      30.01S

$$

INZ060-061-067>069-081>083-085>088-282300-
SOUTHWEST INDIANA

CITY           SKY/WX    TMP DP  RH WIND       PRES   REMARKS
EVANSVILLE     PTSUNNY   79  56  45 N13       30.03S
WASHINGTON +   MOSUNNY   73  57  56 NW15      30.03S

$$

INZ062-063-066-070>080-084-089>092-282300-
SOUTH CENTRAL AND SOUTHEAST INDIANA

CITY           SKY/WX    TMP DP  RH WIND       PRES   REMARKS
BLOOMINGTON    PTSUNNY   72  55  55 N8G17     30.03R
SEYMOUR +      SUNNY     72  41  33 NW10G17   30.00

$$




USA.gov is the U.S. government's official web portal to all federal, state and local government web resources and services.